When you browse on this site, cookies collect data to enhance your experience and personalize the content and advertising you see.
Visit our Privacy Policy to learn more. By continuing to use the site, you agree to this use of cookies and data.
  • In Romania
  • List of Countries
  • For 7 days
  • Water Temperature
  • Weather Map
  • Weather Widgets
  • user-avatar
    Login

    Hourly Weather Palma de Mallorca

    Today, 21 November, Thursday

    Time Temperature Precipitation Wind Pressure Humidity
    00:00 +11°C° 0 mm 3 mps 755 mmHg 76%
    01:00 +12°C° 0.4 mm 3 mps 755 mmHg 79%
    02:00 +12°C° 0.4 mm 3 mps 754 mmHg 82%
    03:00 +12°C° 0.4 mm 3 mps 754 mmHg 85%
    04:00 +12°C° 0.1 mm 3 mps 754 mmHg 85%
    05:00 +11°C° 0.1 mm 3 mps 754 mmHg 84%
    06:00 +11°C° 0.1 mm 4 mps 754 mmHg 83%
    07:00 +12°C° 0.1 mm 4 mps 754 mmHg 80%
    08:00 +13°C° 0.1 mm 5 mps 755 mmHg 76%
    09:00 +14°C° 0.1 mm 5 mps 755 mmHg 72%
    10:00 +15°C° 0 mm 5 mps 755 mmHg 69%
    11:00 +15°C° 0 mm 6 mps 755 mmHg 66%
    12:00 +16°C° 0 mm 6 mps 755 mmHg 64%
    13:00 +16°C° 0.1 mm 6 mps 755 mmHg 64%
    14:00 +15°C° 0.1 mm 6 mps 755 mmHg 65%
    15:00 +15°C° 0.1 mm 6 mps 755 mmHg 66%
    16:00 +15°C° 0 mm 6 mps 755 mmHg 68%
    17:00 +14°C° 0 mm 5 mps 755 mmHg 71%
    18:00 +13°C° 0 mm 4 mps 755 mmHg 74%
    19:00 +13°C° 0 mm 4 mps 755 mmHg 76%
    20:00 +13°C° 0 mm 4 mps 755 mmHg 77%
    21:00 +13°C° 0 mm 4 mps 755 mmHg 78%
    22:00 +13°C° 0 mm 3 mps 755 mmHg 79%
    23:00 +13°C° 0 mm 3 mps 755 mmHg 79%

    Tomorrow, 22 November, Friday

    Time Temperature Precipitation Wind Pressure Humidity
    00:00 +13°C° 0 mm 3 mps 754 mmHg 80%
    01:00 +14°C° 0 mm 2 mps 754 mmHg 80%
    02:00 +14°C° 0 mm 2 mps 754 mmHg 80%
    03:00 +14°C° 0 mm 2 mps 754 mmHg 80%
    04:00 +13°C° 0.1 mm 3 mps 753 mmHg 81%
    05:00 +13°C° 0.1 mm 4 mps 753 mmHg 83%
    06:00 +13°C° 0.1 mm 5 mps 753 mmHg 84%
    07:00 +14°C° 0.7 mm 6 mps 753 mmHg 83%
    08:00 +15°C° 0.7 mm 7 mps 753 mmHg 82%
    09:00 +16°C° 0.7 mm 8 mps 753 mmHg 81%
    10:00 +16°C° 0.7 mm 8 mps 752 mmHg 81%
    11:00 +16°C° 0.7 mm 8 mps 752 mmHg 80%
    12:00 +17°C° 0.7 mm 8 mps 751 mmHg 80%
    13:00 +16°C° 0.5 mm 8 mps 751 mmHg 80%
    14:00 +16°C° 0.5 mm 8 mps 750 mmHg 80%
    15:00 +16°C° 0.5 mm 9 mps 750 mmHg 80%
    16:00 +16°C° 0.2 mm 9 mps 749 mmHg 82%
    17:00 +16°C° 0.2 mm 9 mps 749 mmHg 84%
    18:00 +16°C° 0.2 mm 10 mps 748 mmHg 85%
    19:00 +16°C° 0.6 mm 11 mps 748 mmHg 85%
    20:00 +16°C° 0.6 mm 11 mps 747 mmHg 85%
    21:00 +15°C° 0.6 mm 12 mps 747 mmHg 84%
    22:00 +15°C° 2.5 mm 12 mps 746 mmHg 87%
    23:00 +15°C° 2.5 mm 12 mps 745 mmHg 89%

    Day after tomorrow, 23 November, Saturday

    Time Temperature Precipitation Wind Pressure Humidity
    00:00 +15°C° 2.5 mm 12 mps 745 mmHg 92%
    01:00 +14°C° 1.8 mm 11 mps 744 mmHg 88%
    02:00 +15°C° 1.8 mm 9 mps 744 mmHg 84%
    03:00 +15°C° 1.8 mm 8 mps 743 mmHg 81%
    04:00 +13°C° 0.1 mm 9 mps 743 mmHg 79%
    05:00 +13°C° 0.1 mm 9 mps 743 mmHg 78%
    06:00 +13°C° 0.1 mm 10 mps 743 mmHg 76%
    07:00 +13°C° 0.2 mm 10 mps 743 mmHg 75%
    08:00 +13°C° 0.2 mm 9 mps 744 mmHg 73%
    09:00 +13°C° 0.2 mm 9 mps 744 mmHg 72%
    10:00 +13°C° 0.8 mm 9 mps 744 mmHg 72%
    11:00 +13°C° 0.8 mm 8 mps 744 mmHg 73%
    12:00 +14°C° 0.8 mm 7 mps 744 mmHg 73%
    13:00 +14°C° 1 mm 7 mps 744 mmHg 74%
    14:00 +14°C° 1 mm 7 mps 745 mmHg 76%
    15:00 +12°C° 1 mm 7 mps 745 mmHg 77%
    16:00 +12°C° 0.8 mm 7 mps 746 mmHg 81%
    17:00 +12°C° 0.8 mm 7 mps 746 mmHg 84%
    18:00 +11°C° 0.8 mm 7 mps 747 mmHg 88%
    19:00 +11°C° 1.4 mm 7 mps 748 mmHg 85%
    20:00 +11°C° 1.4 mm 8 mps 749 mmHg 83%
    21:00 +11°C° 1.4 mm 9 mps 750 mmHg 81%
    22:00 +11°C° 0.2 mm 8 mps 750 mmHg 82%
    23:00 +11°C° 0.2 mm 7 mps 751 mmHg 84%

    24 November, Sunday

    Time Temperature Precipitation Wind Pressure Humidity
    00:00 +11°C° 0.2 mm 7 mps 751 mmHg 85%
    01:00 +11°C° 0 mm 7 mps 752 mmHg 84%
    02:00 +11°C° 0 mm 7 mps 752 mmHg 83%
    03:00 +11°C° 0 mm 7 mps 752 mmHg 81%
    04:00 +11°C° 0 mm 6 mps 753 mmHg 81%
    05:00 +10°C° 0 mm 6 mps 753 mmHg 81%
    06:00 +10°C° 0 mm 5 mps 754 mmHg 80%
    07:00 +12°C° 0 mm 5 mps 755 mmHg 77%
    08:00 +13°C° 0 mm 4 mps 755 mmHg 73%
    09:00 +14°C° 0 mm 4 mps 756 mmHg 70%
    10:00 +14°C° 0 mm 4 mps 757 mmHg 66%
    11:00 +16°C° 0 mm 3 mps 757 mmHg 63%
    12:00 +17°C° 0 mm 3 mps 757 mmHg 60%
    13:00 +17°C° 0 mm 3 mps 758 mmHg 60%
    14:00 +16°C° 0 mm 3 mps 758 mmHg 60%
    15:00 +16°C° 0 mm 3 mps 758 mmHg 60%
    16:00 +14°C° 0 mm 3 mps 758 mmHg 64%
    17:00 +14°C° 0 mm 2 mps 759 mmHg 68%
    18:00 +13°C° 0 mm 2 mps 759 mmHg 71%
    19:00 +12°C° 0 mm 3 mps 759 mmHg 73%
    20:00 +12°C° 0 mm 3 mps 760 mmHg 75%
    21:00 +12°C° 0 mm 4 mps 760 mmHg 76%
    22:00 +12°C° 0 mm 4 mps 760 mmHg 78%
    23:00 +12°C° 0 mm 4 mps 760 mmHg 79%

    25 November, Monday

    Time Temperature Precipitation Wind Pressure Humidity
    00:00 +12°C° 0 mm 5 mps 760 mmHg 81%
    01:00 +11°C° 0 mm 4 mps 760 mmHg 80%
    02:00 +11°C° 0 mm 4 mps 760 mmHg 80%
    03:00 +11°C° 0 mm 4 mps 760 mmHg 80%
    04:00 +11°C° 0 mm 3 mps 760 mmHg 80%
    05:00 +11°C° 0 mm 3 mps 760 mmHg 81%
    06:00 +11°C° 0 mm 3 mps 760 mmHg 81%
    07:00 +12°C° 0 mm 3 mps 761 mmHg 77%
    08:00 +13°C° 0 mm 3 mps 761 mmHg 72%
    09:00 +15°C° 0 mm 2 mps 761 mmHg 68%
    10:00 +16°C° 0 mm 3 mps 761 mmHg 64%
    11:00 +17°C° 0 mm 3 mps 761 mmHg 61%
    12:00 +17°C° 0 mm 4 mps 761 mmHg 57%
    13:00 +17°C° 0 mm 3 mps 761 mmHg 58%
    14:00 +17°C° 0 mm 3 mps 761 mmHg 59%
    15:00 +17°C° 0 mm 3 mps 761 mmHg 60%
    16:00 +15°C° 0 mm 2 mps 761 mmHg 65%
    17:00 +14°C° 0 mm 2 mps 761 mmHg 69%
    18:00 +13°C° 0 mm 2 mps 762 mmHg 74%
    19:00 +13°C° 0 mm 2 mps 762 mmHg 74%
    20:00 +13°C° 0 mm 2 mps 762 mmHg 74%
    21:00 +13°C° 0 mm 2 mps 762 mmHg 75%
    22:00 +13°C° 0 mm 2 mps 762 mmHg 75%
    23:00 +13°C° 0 mm 2 mps 762 mmHg 75%

    26 November, Tuesday

    Time Temperature Precipitation Wind Pressure Humidity
    00:00 +12°C° 0 mm 2 mps 762 mmHg 75%
    01:00 +12°C° 0 mm 1 mps 762 mmHg 75%
    02:00 +12°C° 0 mm 1 mps 761 mmHg 75%
    03:00 +12°C° 0 mm 1 mps 761 mmHg 75%
    04:00 +12°C° 0 mm 1 mps 761 mmHg 75%
    05:00 +12°C° 0 mm 1 mps 761 mmHg 75%
    06:00 +12°C° 0 mm 1 mps 761 mmHg 75%
    07:00 +13°C° 0 mm 1 mps 761 mmHg 73%
    08:00 +15°C° 0 mm 1 mps 761 mmHg 70%
    09:00 +16°C° 0 mm 1 mps 762 mmHg 68%
    10:00 +17°C° 0 mm 2 mps 761 mmHg 66%
    11:00 +17°C° 0 mm 2 mps 761 mmHg 65%
    12:00 +18°C° 0 mm 3 mps 760 mmHg 63%
    13:00 +18°C° 0 mm 3 mps 760 mmHg 66%
    14:00 +18°C° 0 mm 3 mps 760 mmHg 69%
    15:00 +17°C° 0 mm 3 mps 759 mmHg 71%
    16:00 +17°C° 0 mm 3 mps 759 mmHg 75%
    17:00 +16°C° 0 mm 3 mps 759 mmHg 80%
    18:00 +14°C° 0 mm 3 mps 759 mmHg 84%
    19:00 +14°C° 0 mm 3 mps 759 mmHg 85%
    20:00 +14°C° 0 mm 3 mps 759 mmHg 85%
    21:00 +14°C° 0 mm 4 mps 759 mmHg 86%
    22:00 +14°C° 0 mm 4 mps 759 mmHg 87%
    23:00 +14°C° 0 mm 4 mps 759 mmHg 88%
    Show more